Terminal Aerodrome Forecast
Issued by NWS Indianapolis, IN

Home | Current Version | Previous Version | Text Only | Print | Product List | Glossary On
Versions: 1 2 3 4 5 6 7 8 9 10 11 12 13 14 15 16 17 18 19 20 21 22 23 24 25 26 27 28
000
FTUS43 KIND 022300
TAFIND
TAF
KIND 022320Z 0300/0406 29006KT P6SM FEW025 BKN200
     FM030700 VRB02KT 3SM BR SCT006
      TEMPO 0310/0313 1 1/2SM BR
     FM031400 21004KT P6SM FEW030=

USA.gov is the U.S. government's official web portal to all federal, state and local government web resources and services.